Mitchell, SD

9:01 AM CDT on October 23, 2019 (GMT -0500)
Mitchell Municipal

Weather History for KMHE - August, 2019

Change the Weather History Date:

Wednesday, August 28, 2019

  Actual Average Record
Temperature  
Mean Temperature 66 °F 70 °F  
Max Temperature 79 °F 82 °F 102 °F (1937)
Min Temperature 52 °F 58 °F 34 °F (1911)
Degree Days  
Heating Degree Days 0 1  
Month to date heating degree days 0 3  
Since 1 June heating degree days 16 43  
Since 1 July heating degree days 0 8  
Cooling Degree Days 1 6  
Month to date cooling degree days 212 213  
Year to date cooling degree days 792 731  
Since 1 June cooling degree days 773 691  
Growing Degree Days 16 (Base 50)    
Moisture  
Dew Point 50 °F    
Average Humidity 59    
Maximum Humidity 83    
Minimum Humidity 35    
Precipitation  
Precipitation 0.00 in 0.08 in 1.12 in (1932)
Month to date precipitation 3.49 2.17  
Year to date precipitation 24.41 16.14  
Snow  
Snow 0.00 in - 0.00 in ()
Month to date snowfall 0.0  
Since 1 June snowfall 0.0  
Since 1 July snowfall 0.0  
Snow Depth 0.00 in    
Sea Level Pressure  
Sea Level Pressure 29.98 in    
Wind  
Wind Speed 8 mph (WSW)    
Max Wind Speed 14 mph    
Max Gust Speed 19 mph    
Visibility 10 miles    
Events      
T = Trace of Precipitation, MM = Missing Value Source: NWS Daily Summary

Daily Weather History Graph

Daily Weather History Graph

Search for Another Location

Airport or City:

Astronomy

Aug. 28, 2019 Rise Set
Actual Time 6:50 AM CDT 8:15 PM CDT
Civil Twilight 6:21 AM CDT 8:44 PM CDT
Nautical Twilight 5:44 AM CDT 9:20 PM CDT
Astronomical Twilight 5:06 AM CDT 9:59 PM CDT
Moon 4:18 AM CDT (8/28) 7:33 PM CDT (8/28)
Length of Visible Light 14h 23m
Length of Day
13h 24m
Waning Crescent, 4% of the Moon is Illuminated
Aug 28
Waning Crescent
Aug 30
New
Sep 5
First Quarter
Sep 13
Full
Sep 21
Last Quarter

Hourly Weather History & Observations

Time (CDT) Temp. Dew Point Humidity Pressure Visibility Wind Dir Wind Speed Gust Speed Precip Events Conditions
12:53 AM 57.9 °F 48.0 °F 70% 29.99 in 10.0 mi West 11.5 mph - N/A   Clear
1:53 AM 55.9 °F 48.0 °F 75% 30.01 in 10.0 mi West 6.9 mph - N/A   Clear
2:53 AM 54.0 °F 48.0 °F 80% 30.01 in 10.0 mi West 8.1 mph - N/A   Clear
3:53 AM 54.0 °F 48.0 °F 80% 30.01 in 10.0 mi West 9.2 mph - N/A   Clear
4:53 AM 55.0 °F 48.0 °F 77% 30.02 in 10.0 mi West 10.4 mph - N/A   Clear
5:53 AM 54.0 °F 46.9 °F 77% 30.03 in 10.0 mi West 9.2 mph - N/A   Clear
6:53 AM 53.1 °F 46.9 °F 80% 30.05 in 10.0 mi WSW 8.1 mph - N/A   Clear
7:53 AM 55.0 °F 46.9 °F 74% 30.06 in 10.0 mi West 8.1 mph - N/A   Clear
8:53 AM 60.1 °F 48.9 °F 67% 30.06 in 10.0 mi West 6.9 mph - N/A   Clear
9:53 AM 66.0 °F 51.1 °F 59% 30.05 in 10.0 mi NW 6.9 mph - N/A   Clear
10:53 AM 69.1 °F 51.1 °F 53% 30.05 in 10.0 mi Variable 3.5 mph - N/A   Clear
11:53 AM 72.0 °F 51.1 °F 48% 30.04 in 10.0 mi WNW 4.6 mph - N/A   Clear
12:53 PM 75.0 °F 51.1 °F 43% 30.02 in 10.0 mi WSW 9.2 mph 17.3 mph N/A   Clear
1:53 PM 75.9 °F 48.0 °F 37% 30.01 in 10.0 mi West 11.5 mph 16.1 mph N/A   Clear
2:53 PM 78.1 °F 50.0 °F 37% 29.99 in 10.0 mi West 12.7 mph - N/A   Clear
3:53 PM 78.1 °F 48.9 °F 36% 29.98 in 10.0 mi West 9.2 mph - N/A   Clear
4:53 PM 79.0 °F 48.9 °F 35% 29.95 in 10.0 mi WSW 6.9 mph - N/A   Clear
5:53 PM 79.0 °F 48.9 °F 35% 29.93 in 10.0 mi SSW 5.8 mph - N/A   Clear
6:53 PM 78.1 °F 50.0 °F 37% 29.91 in 10.0 mi SW 3.5 mph - N/A   Clear
7:53 PM 73.9 °F 54.0 °F 50% 29.90 in 10.0 mi SSE 3.5 mph - N/A   Clear
8:53 PM 68.0 °F 54.0 °F 61% 29.90 in 10.0 mi SSE 5.8 mph - N/A   Clear
9:53 PM 64.0 °F 54.0 °F 70% 29.88 in 10.0 mi SE 6.9 mph - N/A   Clear
10:53 PM 64.0 °F 55.9 °F 75% 29.88 in 10.0 mi SSE 9.2 mph - N/A   Clear
11:53 PM 63.0 °F 55.0 °F 75% 29.86 in 10.0 mi SSE 8.1 mph - N/A   Clear